Zurück zum Katalog

STARLINK-37301

AktivKommunikationVLEO
NORAD 68954·PAYLOAD·🇺🇸 United States

Gestartet May 1, 2026 von Cape Canaveral Space Force Station

Loading…

Nächste Überflüge (nächste 24 Stunden)

TLE

AktuellSource: CelesTrak SupGP

Epoche: Sep 14, 2026, 23:02 UTC

1 68954C 26099D   26257.96020833  .00011309  00000+0  33419-3 0  2574
2 68954  53.1576 101.8769 0001279  84.7787 197.0011 15.34379624    17

Verfolge STARLINK-37301 in Echtzeit mit AllMySat

Download on the App Store